ELEKTRON 3 DEB, 831

Orbit data source: Space-Track

ELEKTRON 3 DEB, 831 is space debris in LEO originally from a launch on Fri, 10 Jul 1964 UTC launched from the Tyuratam Missile And Space Complex (TTMTR). Debris objects in space refer to the collection of defunct objects orbiting the Earth. Examples of debris include non-operational satellites, rocket bodies, and fragments generated from explosions, collisions, or faulty payload assembly.

Loading next visibility...
Identifier
831, 1964-038C
Orbit
LEO
Last TLE update
8 hours ago
Origin
Manufacturer
OKB-1
Mission
Spacecraft
Bus & Motor
ADAPTER, Unknown motor
Mass
Unknown
Launch date (UTC)
1964-07-10 (61 years ago)
Launch vehicle
Unknown
Launch site
Tyuratam Missile And Space Complex (TTMTR)
Object type
Payload
Rocket body
Debris
Shape & HBR
Unknown
Radar Cross Section
Medium (>0.1 m² and <1 m²)

Expand to show TLE details & history

TLE from 8 hours ago
0 ELEKTRON 3 DEB
1 00831U 64038C   25183.89504851  .00017269  00000-0  16773-2 0  9993
2 00831  60.6761   3.5771 1298957 204.1609 149.2784 12.68026628321390
Epoch: 2025-07-02T21:28Z
TLE epoch observation values (Epoch: 2025-07-02T21:28:52.191Z)
Latitude
-0.00007°
Longitude
120.19001°
Altitude
2,288.079 km
Speed
6.38 km/s
True Right ascension
00h 14m 18s
True Declination
0° 00' 00"
Sunlit
Object was in daylight at epoch
Visualization orbit readout
Latitude
42.77143°
Longitude
150.51139°
Altitude
2,266.348 km
Speed
6.403 km/s
Apparent Right ascension
03h 30m 33s
Apparent Declination
9° 38' 01"
Sunlit
Object is in daylight
Visualization observer readout
Local Sidereal Time
17:09:02
Azimuth
30.282° NE
Elevation
-35.453°
Doppler factor
1
Orbital elements
Apogee altitude
2,398.119 km
Perigee altitude
380.237 km
Semi-major axis
7,767.315 km
Eccentricity
0.1299
Inclination
60.6761°
RAAN
3.5771°
Arg. of periapsis
204.1609°
True anomaly
Unknown
Mean anomaly
149.2784°
Eccentric anomaly
Unknown
Mean motion
3.17057 °/min
Orbital period
113.54 mins
BSTAR
0.0016773
Loading maneuver chart data...
Loading SW <> Apogee altitude chart data...
Loading historical data...
Loading historical data...
Loading historical data...
Loading historical data...
Loading historical data...
Loading historical data...
Loading historical data...

ELEKTRON 3 DEB Visibility forecast

Observer location: undefined°, undefined°

Span
Click to sort rows by Start time (UTC) header in descending order
Start Az.
Max El. time (UTC)
Max El. Az.
Max El.
End time (UTC)
End Az.
23 mins2025-07-03 12:41:32.382Z179.524° S2025-07-03 12:53:32.382Z110.39° ESE36.557°2025-07-03 13:04:32.382Z48.118° ENE
24 mins2025-07-03 14:38:32.382Z230.256° WSW2025-07-03 14:51:32.382Z307.856° NW43.04°2025-07-03 15:02:32.382Z34.647° NE
18 mins2025-07-03 16:42:32.382Z279.953° WNW2025-07-03 16:52:32.382Z335.308° NNW27.64°2025-07-03 17:00:32.382Z30.265° NE
12 mins2025-07-03 18:47:32.382Z319.356° NNW2025-07-03 18:54:32.382Z1.66° NNE20.234°2025-07-03 18:59:32.382Z41.432° NE
12 mins2025-07-03 20:48:32.382Z330.662° NNW2025-07-03 20:55:32.382Z27.058° NE29.293°2025-07-03 21:00:32.382Z89.907° E
11 mins2025-07-03 22:47:32.382Z315.175° NNW2025-07-03 22:54:32.382Z222.724° SW39.171°2025-07-03 22:58:32.382Z164.711° S
|